| time (UTC) | temp F | wind direction | speed MPH | gust MPH | rain 1hr in | rain 24hr in | rain mn in | humidity % | barometer mb |
| 20260906094548 | 71 | 130 | 0.0 | 3.0 | 0.00 | 0.00 | 0.00 | 85 | 1016.9 |
| 20260906093048 | 71 | 101 | 1.0 | 3.0 | 0.00 | 0.00 | 0.00 | 84 | 1016.7 |
| 20260906091544 | 71 | 136 | 1.0 | 4.0 | 0.00 | 0.00 | 0.00 | 84 | 1016.5 |
| 20260906090048 | 71 | 99 | 1.0 | 6.0 | 0.00 | 0.00 | 0.00 | 83 | 1016.6 |
| 20260906084549 | 72 | 128 | 2.0 | 4.0 | 0.00 | 0.00 | 0.00 | 83 | 1016.7 |
| 20260906083040 | 72 | 63 | 1.0 | 7.0 | 0.00 | 0.00 | 0.00 | 82 | 1016.6 |
| 20260906081537 | 72 | 184 | 3.0 | 8.0 | 0.00 | 0.00 | 0.00 | 82 | 1016.4 |
| 20260906080037 | 72 | 156 | 2.0 | 5.0 | 0.00 | 0.00 | 0.00 | 82 | 1016.4 |
| 20260906074535 | 72 | 125 | 0.0 | 5.0 | 0.00 | 0.00 | 0.00 | 82 | 1016.5 |
| 20260906073039 | 72 | 113 | 1.0 | 4.0 | 0.00 | 0.00 | 0.00 | 82 | 1016.6 |
| 20260906071532 | 73 | 102 | 1.0 | 4.0 | 0.00 | 0.00 | 0.00 | 81 | 1016.8 |
| 20260906070029 | 73 | 138 | 0.0 | 3.0 | 0.00 | 0.00 | 0.00 | 81 | 1016.9 |
| 20260906064529 | 73 | 115 | 0.0 | 2.0 | 0.00 | 0.00 | 0.00 | 81 | 1017.2 |
| 20260906063028 | 73 | 171 | 2.0 | 5.0 | 0.00 | 0.00 | 0.00 | 81 | 1017.0 |
| 20260906061528 | 73 | 128 | 2.0 | 4.0 | 0.00 | 0.00 | 0.00 | 82 | 1016.9 |
| 20260906060033 | 73 | 153 | 1.0 | 5.0 | 0.00 | 0.00 | 0.00 | 82 | 1017.1 |
| 20260906054526 | 74 | 84 | 1.0 | 4.0 | 0.00 | 0.00 | 0.00 | 81 | 1017.0 |
| 20260906053023 | 74 | 115 | 2.0 | 4.0 | 0.00 | 0.00 | 0.00 | 81 | 1016.9 |
| 20260906051520 | 74 | 120 | 0.0 | 3.0 | 0.00 | 0.00 | 0.00 | 81 | 1017.0 |
| 20260906050018 | 74 | 127 | 1.0 | 3.0 | 0.00 | 0.00 | 0.00 | 80 | 1017.1 |
| 20260906044518 | 74 | 107 | 0.0 | 3.0 | 0.00 | 0.00 | 0.00 | 79 | 1017.2 |
| 20260906043027 | 74 | 97 | 1.0 | 3.0 | 0.00 | 0.00 | 0.00 | 79 | 1017.2 |
| 20260906041518 | 75 | 56 | 0.0 | 5.0 | 0.00 | 0.00 | 0.00 | 79 | 1017.4 |
| 20260906040023 | 75 | 50 | 1.0 | 4.0 | 0.00 | 0.00 | 0.00 | 79 | 1017.3 |
| 20260906034529 | 75 | 78 | 1.0 | 3.0 | 0.00 | 0.00 | 0.00 | 79 | 1017.4 |
| 20260906033024 | 75 | 136 | 1.0 | 3.0 | 0.00 | 0.00 | 0.00 | 78 | 1017.4 |
| 20260906031518 | 75 | 141 | 0.0 | 2.0 | 0.00 | 0.00 | 0.00 | 78 | 1017.2 |
| 20260906030015 | 76 | 150 | 0.0 | 3.0 | 0.00 | 0.00 | 0.00 | 77 | 1017.3 |
| 20260906024514 | 76 | 150 | 0.0 | 3.0 | 0.00 | 0.00 | 0.00 | 77 | 1017.5 |
| 20260906023016 | 76 | 150 | 0.0 | 2.0 | 0.00 | 0.00 | 0.00 | 77 | 1017.4 |
| 20260906021514 | 76 | 150 | 1.0 | 3.0 | 0.00 | 0.00 | 0.00 | 77 | 1017.1 |
| 20260906020013 | 76 | 148 | 1.0 | 5.0 | 0.00 | 0.00 | 0.00 | 75 | 1016.6 |
| 20260906014525 | 77 | 145 | 3.0 | 8.0 | 0.00 | 0.00 | 0.00 | 74 | 1016.3 |
| 20260906013113 | 77 | 171 | 3.0 | 11.0 | 0.00 | 0.00 | 0.00 | 74 | 1015.7 |
| 20260906011521 | 78 | 205 | 5.0 | 10.0 | 0.00 | 0.00 | 0.00 | 73 | 1015.4 |
| 20260906010012 | 78 | 149 | 6.0 | 11.0 | 0.00 | 0.00 | 0.00 | 73 | 1015.3 |
| 20260906004517 | 79 | 167 | 5.0 | 10.0 | 0.00 | 0.00 | 0.00 | 71 | 1015.2 |
| 20260906003011 | 80 | 163 | 6.0 | 13.0 | 0.00 | 0.00 | 0.00 | 69 | 1015.0 |
| 20260906001510 | 81 | 165 | 5.0 | 8.0 | 0.00 | 0.00 | 0.00 | 68 | 1014.8 |
| 20260906000010 | 82 | 161 | 5.0 | 9.0 | 0.00 | 0.00 | 0.00 | 65 | 1014.7 |
| 20260905234508 | 84 | 182 | 2.0 | 8.0 | 0.00 | 0.00 | 0.00 | 63 | 1014.7 |
| 20260905233007 | 84 | 184 | 5.0 | 12.0 | 0.00 | 0.00 | 0.00 | 62 | 1014.6 |
| 20260905231508 | 85 | 174 | 4.0 | 11.0 | 0.00 | 0.00 | 0.00 | 60 | 1014.4 |
| 20260905230007 | 86 | 129 | 1.0 | 10.0 | 0.00 | 0.00 | 0.00 | 58 | 1014.3 |
| 20260905224513 | 87 | 57 | 2.0 | 12.0 | 0.00 | 0.00 | 0.00 | 57 | 1014.0 |
| 20260905223005 | 86 | 41 | 4.0 | 10.0 | 0.00 | 0.00 | 0.00 | 58 | 1013.8 |
| 20260905221505 | 86 | 173 | 4.0 | 13.0 | 0.00 | 0.00 | 0.00 | 59 | 1014.0 |
| 20260905220002 | 86 | 61 | 3.0 | 9.0 | 0.00 | 0.00 | 0.00 | 59 | 1014.3 |
| 20260905214501 | 86 | 57 | 2.0 | 12.0 | 0.00 | 0.00 | 0.00 | 60 | 1014.5 |
| 20260905213104 | 85 | 84 | 4.0 | 13.0 | 0.00 | 0.00 | 0.00 | 62 | 1014.6 |
| 20260905211605 | 85 | 67 | 5.0 | 11.0 | 0.00 | 0.00 | 0.00 | 61 | 1014.7 |
| 20260905210059 | 85 | 48 | 4.0 | 12.0 | 0.00 | 0.00 | 0.00 | 63 | 1014.4 |
| 20260905204602 | 84 | 61 | 3.0 | 13.0 | 0.00 | 0.00 | 0.00 | 62 | 1014.7 |
| 20260905203058 | 84 | 55 | 7.0 | 13.0 | 0.00 | 0.00 | 0.00 | 64 | 1014.8 |
| 20260905201552 | 83 | 80 | 3.0 | 9.0 | 0.00 | 0.00 | 0.00 | 66 | 1015.5 |
| 20260905200100 | 83 | 17 | 6.0 | 11.0 | 0.00 | 0.00 | 0.00 | 67 | 1015.8 |
| 20260905194549 | 82 | 57 | 3.0 | 10.0 | 0.00 | 0.00 | 0.00 | 69 | 1015.9 |
| 20260905193103 | 82 | 27 | 3.0 | 7.0 | 0.00 | 0.00 | 0.00 | 68 | 1016.2 |
| 20260905191553 | 81 | 360 | 2.0 | 5.0 | 0.00 | 0.00 | 0.00 | 69 | 1016.4 |
| 20260905190147 | 81 | 44 | 0.0 | 4.0 | 0.00 | 0.00 | 0.00 | 68 | 1016.4 |
| 20260905184546 | 81 | 350 | 1.0 | 5.0 | 0.00 | 0.00 | 0.00 | 69 | 1016.5 |
| 20260905183040 | 81 | 52 | 1.0 | 5.0 | 0.00 | 0.00 | 0.00 | 69 | 1016.5 |
| 20260905181541 | 80 | 74 | 2.0 | 4.0 | 0.00 | 0.00 | 0.00 | 71 | 1016.6 |
| 20260905180034 | 79 | 128 | 1.0 | 5.0 | 0.00 | 0.00 | 0.00 | 73 | 1016.8 |
| 20260905174534 | 78 | 162 | 2.0 | 8.0 | 0.00 | 0.00 | 0.00 | 73 | 1017.0 |
| 20260905173033 | 78 | 111 | 1.0 | 5.0 | 0.00 | 0.00 | 0.00 | 75 | 1017.3 |
| 20260905171528 | 76 | 172 | 2.0 | 7.0 | 0.00 | 0.00 | 0.00 | 79 | 1017.5 |
| 20260905170023 | 75 | 176 | 2.0 | 5.0 | 0.00 | 0.00 | 0.00 | 80 | 1017.4 |
| 20260905164520 | 74 | 133 | 2.0 | 6.0 | 0.00 | 0.00 | 0.00 | 80 | 1017.4 |
| 20260905163019 | 74 | 67 | 3.0 | 6.0 | 0.00 | 0.00 | 0.00 | 81 | 1017.5 |
| 20260905161517 | 74 | 13 | 2.0 | 6.0 | 0.00 | 0.00 | 0.00 | 82 | 1017.5 |
| 20260905160033 | 73 | 34 | 2.0 | 5.0 | 0.00 | 0.00 | 0.00 | 84 | 1017.4 |
| 20260905154509 | 72 | 72 | 1.0 | 6.0 | 0.00 | 0.00 | 0.00 | 85 | 1017.4 |
| 20260905153006 | 72 | 165 | 2.0 | 3.0 | 0.00 | 0.00 | 0.00 | 85 | 1017.4 |
| 20260905151502 | 72 | 12 | 0.0 | 4.0 | 0.00 | 0.00 | 0.00 | 87 | 1017.1 |
| 20260905144601 | 70 | 30 | 3.0 | 8.0 | 0.00 | 0.00 | 0.00 | 90 | 1016.6 |
| 20260905143058 | 70 | 9 | 3.0 | 6.0 | 0.00 | 0.00 | 0.00 | 90 | 1016.6 |
| 20260905141557 | 70 | 31 | 1.0 | 5.0 | 0.00 | 0.00 | 0.00 | 91 | 1016.6 |
| 20260905140053 | 69 | 50 | 2.0 | 6.0 | 0.00 | 0.00 | 0.00 | 91 | 1016.7 |
| 20260905134556 | 69 | 46 | 1.0 | 4.0 | 0.00 | 0.00 | 0.00 | 91 | 1016.9 |
| 20260905133049 | 69 | 28 | 2.0 | 3.0 | 0.00 | 0.00 | 0.00 | 91 | 1016.8 |
| 20260905131551 | 69 | 38 | 2.0 | 3.0 | 0.00 | 0.00 | 0.00 | 91 | 1016.6 |
| 20260905130044 | 68 | 51 | 0.0 | 4.0 | 0.00 | 0.00 | 0.00 | 91 | 1016.1 |
| 20260905124543 | 68 | 19 | 2.0 | 5.0 | 0.00 | 0.00 | 0.00 | 91 | 1015.4 |
| 20260905123040 | 68 | 52 | 3.0 | 8.0 | 0.00 | 0.00 | 0.00 | 91 | 1015.0 |
| 20260905121538 | 68 | 40 | 0.0 | 3.0 | 0.00 | 0.00 | 0.00 | 91 | 1015.3 |
| 20260905120037 | 68 | 46 | 1.0 | 4.0 | 0.00 | 0.00 | 0.00 | 91 | 1015.4 |
| 20260905114541 | 68 | 49 | 1.0 | 3.0 | 0.00 | 0.00 | 0.00 | 90 | 1015.4 |
| 20260905113037 | 67 | 34 | 2.0 | 5.0 | 0.00 | 0.00 | 0.00 | 90 | 1015.1 |
| 20260905111533 | 67 | 69 | 2.0 | 6.0 | 0.00 | 0.00 | 0.00 | 90 | 1015.1 |
| 20260905110034 | 67 | 46 | 2.0 | 6.0 | 0.00 | 0.00 | 0.00 | 90 | 1015.1 |
| 20260905104529 | 68 | 80 | 3.0 | 6.0 | 0.00 | 0.00 | 0.00 | 89 | 1014.9 |
| 20260905103029 | 68 | 31 | 2.0 | 5.0 | 0.00 | 0.00 | 0.00 | 89 | 1014.8 |
| 20260905101539 | 68 | 49 | 2.0 | 8.0 | 0.00 | 0.00 | 0.00 | 89 | 1014.7 |
| 20260905100028 | 68 | 40 | 0.0 | 8.0 | 0.00 | 0.00 | 0.00 | 89 | 1014.9 |